| time (UTC) | temp C | wind direction | speed KPH | gust KPH | rain 1hr cm | rain 24hr cm | rain mn cm | humidity % | barometer mb |
| 20260509000032 | 16 | 115 | 0.0 | 0.0 | 0.00 | 0.00 | 0.00 | 66 | 1011.8 |
| 20260508234532 | 17 | 118 | 0.0 | 0.0 | 0.00 | 0.00 | 0.00 | 64 | 1011.8 |
| 20260508233036 | 17 | 60 | 0.0 | 0.0 | 0.00 | 0.00 | 0.00 | 64 | 1011.9 |
| 20260508231531 | 17 | 78 | 0.0 | 0.0 | 0.00 | 0.00 | 0.00 | 62 | 1011.6 |
| 20260508230030 | 17 | 86 | 0.0 | 0.0 | 0.00 | 0.00 | 0.00 | 61 | 1011.5 |
| 20260508224530 | 18 | 64 | 0.0 | 0.0 | 0.00 | 0.00 | 0.00 | 61 | 1011.4 |
| 20260508223030 | 18 | 100 | 0.0 | 6.4 | 0.00 | 0.00 | 0.00 | 60 | 1011.5 |
| 20260508221529 | 18 | 107 | 0.0 | 3.2 | 0.00 | 0.00 | 0.00 | 59 | 1011.4 |
| 20260508220027 | 18 | 109 | 0.0 | 4.8 | 0.00 | 0.00 | 0.00 | 57 | 1011.3 |
| 20260508214532 | 18 | 117 | 0.0 | 19.3 | 0.00 | 0.00 | 0.00 | 58 | 1011.5 |
| 20260508213026 | 18 | 105 | 0.0 | 1.6 | 0.00 | 0.00 | 0.00 | 57 | 1011.8 |
| 20260508211526 | 18 | 151 | 0.0 | 3.2 | 0.00 | 0.00 | 0.00 | 57 | 1011.5 |
| 20260508210032 | 18 | 69 | 0.0 | 0.0 | 0.00 | 0.00 | 0.00 | 55 | 1011.5 |
| 20260508204523 | 18 | 145 | 0.0 | 11.3 | 0.00 | 0.00 | 0.00 | 55 | 1011.8 |
| 20260508203029 | 18 | 77 | 0.0 | 1.6 | 0.00 | 0.00 | 0.00 | 57 | 1011.9 |
| 20260508201522 | 19 | 63 | 0.0 | 9.7 | 0.00 | 0.00 | 0.00 | 53 | 1012.1 |
| 20260508200017 | 18 | 123 | 0.0 | 9.7 | 0.00 | 0.00 | 0.00 | 56 | 1012.2 |
| 20260508194518 | 18 | 22 | 0.0 | 20.9 | 0.00 | 0.00 | 0.00 | 54 | 1012.6 |
| 20260508193015 | 19 | 123 | 0.0 | 12.9 | 0.00 | 0.00 | 0.00 | 56 | 1012.8 |
| 20260508191512 | 19 | 40 | 1.6 | 16.1 | 0.00 | 0.00 | 0.00 | 53 | 1013.2 |
| 20260508190013 | 20 | 113 | 0.0 | 3.2 | 0.00 | 0.00 | 0.00 | 52 | 1013.2 |
| 20260508184517 | 19 | 148 | 1.6 | 16.1 | 0.00 | 0.00 | 0.00 | 53 | 1013.6 |
| 20260508183009 | 18 | 139 | 0.0 | 4.8 | 0.00 | 0.00 | 0.00 | 55 | 1013.8 |
| 20260508181508 | 19 | 133 | 0.0 | 3.2 | 0.00 | 0.00 | 0.00 | 53 | 1013.8 |
| 20260508180008 | 20 | 132 | 9.7 | 14.5 | 0.00 | 0.00 | 0.00 | 49 | 1014.0 |
| 20260508174506 | 19 | 69 | 1.6 | 12.9 | 0.00 | 0.00 | 0.00 | 54 | 1014.2 |
| 20260508173003 | 18 | 84 | 0.0 | 1.6 | 0.00 | 0.00 | 0.00 | 50 | 1014.6 |
| 20260508171600 | 18 | 147 | 0.0 | 9.7 | 0.00 | 0.00 | 0.00 | 52 | 1014.6 |
| 20260508170100 | 18 | 318 | 0.0 | 0.0 | 0.00 | 0.00 | 0.00 | 56 | 1015.0 |
| 20260508164553 | 17 | 323 | 0.0 | 6.4 | 0.00 | 0.00 | 0.00 | 54 | 1015.4 |
| 20260508163103 | 17 | 294 | 0.0 | 6.4 | 0.00 | 0.00 | 0.00 | 54 | 1015.7 |
| 20260508161556 | 17 | 288 | 0.0 | 0.0 | 0.00 | 0.00 | 0.00 | 54 | 1015.9 |
| 20260508160045 | 17 | 105 | 0.0 | 11.3 | 0.00 | 0.00 | 0.00 | 50 | 1016.1 |
| 20260508154542 | 16 | 143 | 0.0 | 0.0 | 0.00 | 0.00 | 0.00 | 53 | 1016.4 |
| 20260508153052 | 16 | 323 | 0.0 | 20.9 | 0.00 | 0.00 | 0.00 | 53 | 1016.5 |
| 20260508151534 | 16 | 114 | 3.2 | 12.9 | 0.00 | 0.00 | 0.00 | 52 | 1016.7 |
| 20260508150030 | 15 | 355 | 1.6 | 9.7 | 0.00 | 0.00 | 0.00 | 52 | 1016.6 |
| 20260508144526 | 15 | 344 | 0.0 | 0.0 | 0.00 | 0.00 | 0.00 | 57 | 1016.7 |
| 20260508143023 | 15 | 348 | 0.0 | 0.0 | 0.00 | 0.00 | 0.00 | 58 | 1016.9 |
| 20260508141518 | 14 | 334 | 0.0 | 0.0 | 0.00 | 0.00 | 0.00 | 60 | 1016.9 |
| 20260508140014 | 13 | 312 | 0.0 | 0.0 | 0.00 | 0.00 | 0.00 | 61 | 1017.0 |
| 20260508134511 | 13 | 31 | 0.0 | 0.0 | 0.00 | 0.00 | 0.00 | 66 | 1017.1 |
| 20260508133004 | 12 | 107 | 0.0 | 0.0 | 0.00 | 0.00 | 0.00 | 70 | 1017.1 |
| 20260508131603 | 11 | 327 | 0.0 | 0.0 | 0.00 | 0.00 | 0.00 | 92 | 1017.2 |
| 20260508130055 | 9 | 118 | 0.0 | 1.6 | 0.00 | 0.00 | 0.00 | 97 | 1017.1 |
| 20260508124551 | 8 | 293 | 0.0 | 0.0 | 0.00 | 0.00 | 0.00 | 97 | 1017.0 |
| 20260508123049 | 7 | 331 | 0.0 | 4.8 | 0.00 | 0.00 | 0.00 | 97 | 1016.8 |
| 20260508121545 | 6 | 147 | 0.0 | 0.0 | 0.00 | 0.00 | 0.00 | 97 | 1016.7 |
| 20260508120039 | 5 | 360 | 0.0 | 0.0 | 0.00 | 0.00 | 0.00 | 96 | 1016.5 |
| 20260508114536 | 5 | 360 | 0.0 | 0.0 | 0.00 | 0.28 | 0.00 | 96 | 1016.3 |
| 20260508113035 | 4 | 147 | 0.0 | 0.0 | 0.00 | 0.28 | 0.00 | 96 | 1016.0 |
| 20260508111534 | 4 | 147 | 0.0 | 0.0 | 0.00 | 0.28 | 0.00 | 95 | 1015.8 |
| 20260508110033 | 4 | 147 | 0.0 | 0.0 | 0.00 | 0.28 | 0.00 | 95 | 1015.5 |
| 20260508104524 | 4 | 147 | 0.0 | 0.0 | 0.00 | 0.41 | 0.00 | 95 | 1015.3 |
| 20260508103037 | 5 | 147 | 0.0 | 0.0 | 0.00 | 0.41 | 0.00 | 95 | 1015.2 |
| 20260508101520 | 5 | 147 | 0.0 | 0.0 | 0.00 | 0.41 | 0.00 | 95 | 1014.8 |
| 20260508100019 | 5 | 147 | 0.0 | 0.0 | 0.00 | 0.41 | 0.00 | 95 | 1014.6 |
| 20260508094516 | 5 | 147 | 0.0 | 0.0 | 0.00 | 0.41 | 0.00 | 95 | 1014.5 |
| 20260508093014 | 5 | 147 | 0.0 | 0.0 | 0.00 | 0.41 | 0.00 | 95 | 1014.4 |
| 20260508091515 | 5 | 147 | 0.0 | 0.0 | 0.00 | 0.41 | 0.00 | 95 | 1014.5 |
| 20260508090011 | 6 | 147 | 0.0 | 0.0 | 0.00 | 0.41 | 0.00 | 95 | 1014.2 |
| 20260508084509 | 6 | 147 | 0.0 | 0.0 | 0.00 | 0.41 | 0.00 | 95 | 1014.2 |
| 20260508083007 | 6 | 147 | 0.0 | 0.0 | 0.00 | 0.41 | 0.00 | 95 | 1014.0 |
| 20260508081506 | 6 | 146 | 0.0 | 0.0 | 0.00 | 0.41 | 0.00 | 95 | 1013.9 |
| 20260508080005 | 6 | 146 | 0.0 | 0.0 | 0.00 | 0.41 | 0.00 | 95 | 1013.7 |
| 20260508074502 | 6 | 146 | 0.0 | 1.6 | 0.00 | 0.41 | 0.00 | 95 | 1013.6 |
| 20260508073000 | 6 | 11 | 0.0 | 0.0 | 0.00 | 0.41 | 0.00 | 95 | 1013.7 |
| 20260508071600 | 6 | 10 | 0.0 | 0.0 | 0.00 | 0.41 | 0.00 | 95 | 1013.5 |
| 20260508070059 | 7 | 10 | 0.0 | 0.0 | 0.00 | 0.41 | 0.00 | 95 | 1013.4 |
| 20260508064557 | 7 | 10 | 0.0 | 0.0 | 0.00 | 0.41 | 0.00 | 95 | 1013.4 |
| 20260508063059 | 7 | 10 | 0.0 | 0.0 | 0.00 | 0.41 | 0.00 | 95 | 1013.4 |
| 20260508061602 | 7 | 10 | 0.0 | 0.0 | 0.00 | 0.41 | 0.00 | 95 | 1013.5 |
| 20260508060111 | 7 | 11 | 0.0 | 0.0 | 0.00 | 0.41 | 0.00 | 95 | 1013.4 |
| 20260508054638 | 7 | 11 | 0.0 | 0.0 | 0.00 | 0.51 | 0.00 | 95 | 1013.5 |
| 20260508053055 | 7 | 11 | 0.0 | 0.0 | 0.00 | 0.51 | 0.00 | 95 | 1013.5 |
| 20260508051552 | 7 | 11 | 0.0 | 0.0 | 0.00 | 0.51 | 0.00 | 94 | 1013.6 |
| 20260508050050 | 7 | 11 | 0.0 | 0.0 | 0.00 | 0.51 | 0.00 | 94 | 1013.4 |
| 20260508044548 | 7 | 11 | 0.0 | 0.0 | 0.00 | 0.66 | 0.00 | 94 | 1013.3 |
| 20260508043055 | 7 | 11 | 0.0 | 0.0 | 0.00 | 0.66 | 0.00 | 94 | 1013.2 |
| 20260508041545 | 7 | 11 | 0.0 | 0.0 | 0.00 | 0.66 | 0.00 | 93 | 1013.1 |
| 20260508040041 | 7 | 11 | 0.0 | 0.0 | 0.00 | 0.66 | 0.00 | 93 | 1013.0 |
| 20260508034548 | 7 | 11 | 0.0 | 0.0 | 0.00 | 0.71 | 0.66 | 93 | 1013.0 |
| 20260508033040 | 8 | 11 | 0.0 | 0.0 | 0.00 | 0.71 | 0.66 | 93 | 1013.0 |
| 20260508031538 | 8 | 11 | 0.0 | 0.0 | 0.00 | 0.71 | 0.66 | 93 | 1013.1 |
| 20260508030039 | 8 | 11 | 0.0 | 0.0 | 0.00 | 0.71 | 0.66 | 92 | 1013.0 |
| 20260508024541 | 8 | 13 | 0.0 | 0.0 | 0.00 | 0.79 | 0.66 | 92 | 1013.0 |
| 20260508023032 | 8 | 13 | 0.0 | 0.0 | 0.00 | 0.79 | 0.66 | 91 | 1012.8 |
| 20260508021528 | 8 | 13 | 0.0 | 0.0 | 0.00 | 0.79 | 0.66 | 91 | 1012.4 |
| 20260508020026 | 9 | 13 | 0.0 | 0.0 | 0.00 | 0.79 | 0.66 | 90 | 1012.3 |
| 20260508014533 | 10 | 13 | 0.0 | 0.0 | 0.00 | 0.84 | 0.66 | 89 | 1012.1 |
| 20260508013022 | 10 | 13 | 0.0 | 0.0 | 0.00 | 0.84 | 0.66 | 89 | 1011.8 |
| 20260508011518 | 10 | 13 | 0.0 | 0.0 | 0.00 | 0.84 | 0.66 | 88 | 1011.6 |
| 20260508010026 | 11 | 13 | 0.0 | 0.0 | 0.00 | 0.84 | 0.66 | 86 | 1011.5 |
| 20260508004522 | 11 | 13 | 0.0 | 0.0 | 0.00 | 0.99 | 0.66 | 85 | 1011.3 |
| 20260508003010 | 11 | 13 | 0.0 | 0.0 | 0.00 | 0.99 | 0.66 | 84 | 1011.1 |
| 20260508001509 | 11 | 355 | 0.0 | 3.2 | 0.00 | 0.99 | 0.66 | 83 | 1010.9 |